Theta_e
293 293 293 293 293 292 292 292 291 291 291 291 291 291 291 290 290 290 290 290 291 291 291 292 292 292 292 292 291 291 290 290 289 289 289 288 288 288 288 288 287 287 287 287 287 287 287 286 286 286 285 285 285 285 285 285 285 285 285 285 285 285 285 285 284 285 286 286 287 287 287 286 286 286 286 286 286 286 286 286 286 286 286 286 287
294 294 294 293 293 293 292 292 292 292 291 291 291 291 290 290 290 290 290 291 291 291 292 292 292 292 292 291 291 290 289 289 288 288 288 288 288 288 288 288 287 287 287 286 286 286 286 286 285 285 284 284 283 283 283 283 283 283 284 283 283 283 283 283 283 283 283 284 285 286 287 286 286 286 285 285 285 285 285 285 285 285 285 285 286
294 294 294 293 293 293 293 292 292 292 292 291 291 291 291 290 290 290 290 291 291 291 292 292 292 291 291 290 290 289 289 288 288 288 288 288 288 288 288 287 287 287 286 286 285 285 285 285 284 284 283 282 282 282 281 281 282 282 282 282 282 282 282 281 282 282 282 282 282 283 284 284 285 285 285 285 284 284 284 284 284 284 285 285 286
295 294 294 293 293 293 293 293 292 292 292 292 291 291 291 291 290 290 291 291 291 291 292 292 292 291 291 290 289 289 288 288 288 288 288 288 288 288 288 287 287 286 286 285 284 284 284 284 283 283 282 281 281 280 280 280 280 280 280 280 281 281 281 281 280 280 280 280 280 280 281 281 282 283 284 284 284 284 284 284 284 284 284 285 285
295 294 294 294 293 293 293 293 292 292 292 292 292 291 291 291 290 290 291 291 291 291 292 292 291 291 290 290 289 288 288 288 288 287 287 287 287 287 287 287 286 286 285 284 283 283 283 283 282 282 281 280 279 279 279 279 279 279 279 279 279 279 280 280 279 279 279 279 279 279 279 279 280 281 282 283 284 283 283 283 283 283 284 284 284
295 295 294 294 294 294 293 293 293 292 292 292 292 292 291 291 290 290 290 291 291 291 291 292 291 291 290 290 289 288 288 288 288 287 287 287 287 287 287 286 286 285 284 283 283 282 282 281 281 280 280 279 278 278 278 278 278 278 278 278 278 278 278 279 278 279 278 278 278 278 278 278 278 279 279 280 282 283 282 283 283 283 283 283 284
296 295 295 294 294 294 294 293 293 293 292 292 292 292 291 291 291 290 290 290 291 291 291 291 291 291 291 290 290 289 289 289 288 288 287 287 287 287 287 286 285 284 283 283 282 281 280 280 279 279 279 278 278 277 277 277 277 277 277 277 277 277 277 277 277 278 278 277 277 277 277 277 277 277 277 277 279 280 281 282 281 281 282 282 283
296 296 295 295 294 294 294 294 293 293 293 292 292 292 292 292 291 291 291 290 291 291 291 291 291 291 291 290 290 290 290 289 289 288 287 287 287 287 287 286 285 284 283 283 282 281 280 279 278 278 278 277 277 277 276 276 276 276 276 276 276 276 276 276 276 276 277 277 277 277 277 276 276 276 275 275 275 276 279 280 280 281 281 281 281
296 296 295 295 295 295 295 294 294 293 293 292 292 292 292 292 292 291 291 291 291 291 291 291 291 291 291 291 290 290 290 290 289 288 288 287 287 287 287 286 285 284 283 283 282 281 280 279 278 277 277 276 276 276 276 276 276 275 275 275 275 275 275 275 275 275 276 276 276 276 276 276 276 275 275 274 274 274 276 277 278 280 280 280 280
297 297 296 296 295 295 295 294 294 294 293 293 292 292 292 292 292 291 291 291 291 291 291 291 291 291 291 291 291 291 290 290 289 289 288 287 287 287 287 285 284 284 283 282 282 281 281 279 278 277 276 276 275 275 275 275 275 275 275 275 275 275 274 274 275 275 275 275 275 275 276 275 275 275 274 274 274 274 274 275 275 277 278 279 280
297 297 297 296 296 295 295 295 295 295 294 293 293 293 292 292 292 292 291 291 291 291 291 291 291 291 291 291 291 291 290 290 289 289 288 288 287 287 286 285 284 283 282 282 282 281 281 279 278 276 276 275 275 274 274 274 274 274 274 274 274 274 274 274 274 274 274 274 274 275 275 275 275 274 274 274 274 273 273 274 274 274 275 277 278
297 297 297 296 296 295 295 295 295 295 294 294 294 293 293 292 292 292 292 291 291 291 291 291 291 291 291 291 291 291 290 290 289 289 289 288 287 286 286 284 283 283 282 282 281 281 280 279 278 276 276 275 274 274 273 273 273 273 273 273 273 273 273 273 273 273 273 273 273 273 274 274 274 274 273 273 273 273 272 273 273 273 274 276 276
297 297 297 296 296 296 296 295 295 295 295 294 294 294 293 293 292 292 292 292 292 291 291 291 291 291 291 290 290 290 290 290 289 289 289 288 287 286 285 284 283 282 282 281 281 280 279 278 277 276 276 275 274 274 273 273 273 273 272 272 272 272 272 272 272 272 272 273 273 273 273 273 273 273 272 272 272 272 272 272 272 271 272 274 275
297 297 297 296 296 296 295 295 295 295 294 294 294 294 294 293 293 293 293 292 292 292 291 291 291 291 291 290 290 290 290 289 289 289 289 288 286 285 284 283 282 281 281 281 280 279 278 277 276 275 275 275 274 273 273 272 272 272 272 272 272 272 272 272 272 272 272 272 272 272 272 272 272 272 272 272 271 271 271 271 271 271 271 272 273
296 296 296 295 295 295 295 294 294 294 294 294 294 294 294 293 293 293 293 293 292 292 292 291 291 291 291 290 290 290 289 289 289 288 288 288 286 284 283 282 281 281 280 280 279 278 277 276 275 274 274 274 274 273 272 272 271 271 271 271 271 271 271 271 271 271 271 271 271 271 271 271 271 271 271 271 271 270 270 270 270 270 271 272 272
295 295 295 294 294 293 293 292 293 293 293 293 293 293 293 293 293 293 293 293 292 292 292 292 292 291 291 291 290 290 289 288 288 289 289 288 285 283 282 281 280 280 280 279 278 277 277 275 274 273 273 273 273 273 272 271 271 271 271 271 271 270 270 270 270 270 270 271 270 270 270 270 270 270 270 270 270 270 270 270 269 269 269 269 270
295 294 294 293 293 292 292 292 292 292 292 292 292 292 292 292 292 292 292 292 292 292 292 292 292 291 291 291 290 290 289 289 289 289 289 287 284 282 281 280 280 279 279 278 277 277 276 275 274 273 272 272 272 272 271 271 271 270 270 270 270 270 270 270 270 270 270 270 270 270 270 270 270 270 270 270 270 270 269 269 269 269 268 268 268
294 294 293 292 292 291 291 292 292 292 291 291 291 291 292 291 292 292 292 292 292 291 291 291 291 290 290 290 290 290 289 289 289 289 288 286 283 281 280 280 279 279 278 278 277 276 275 274 273 272 272 272 272 271 271 270 270 270 270 269 269 269 269 269 269 269 269 269 269 269 269 269 269 269 269 269 269 269 269 269 269 269 268 268 267
293 293 292 291 291 291 291 291 291 291 291 291 291 290 290 290 290 290 290 289 290 290 290 290 289 289 290 289 289 289 289 289 288 287 288 286 283 281 280 279 278 277 277 276 276 275 274 273 272 271 271 271 271 271 270 270 270 269 269 269 269 269 269 269 269 269 268 269 269 269 269 269 269 269 269 269 269 269 269 269 269 269 268 268 268
293 292 291 291 290 290 290 290 290 290 290 290 289 289 288 288 287 287 287 287 287 287 287 287 287 288 288 288 288 288 287 287 285 284 285 284 281 280 279 278 277 276 275 274 275 274 273 272 271 270 270 270 271 271 270 270 269 269 269 268 268 268 268 268 268 268 268 268 268 268 268 268 268 268 268 269 269 269 269 269 269 269 268 268 268
292 291 290 290 289 290 289 289 289 289 289 288 288 288 287 287 286 286 286 285 285 285 285 285 285 286 286 286 286 286 286 285 284 283 282 281 279 278 277 276 275 275 274 274 274 273 272 271 270 269 269 269 270 270 270 269 269 268 268 268 268 268 268 268 267 267 267 267 267 268 268 268 268 268 268 268 268 268 268 268 268 268 268 268 268
290 289 289 289 289 289 288 288 288 288 288 287 287 287 286 286 285 285 284 284 284 283 283 284 284 284 284 284 285 285 285 285 284 282 280 278 277 277 276 275 274 274 274 273 273 273 271 270 269 269 268 268 268 269 269 269 269 268 268 268 267 267 267 267 267 267 267 267 267 267 267 267 267 267 268 268 268 268 268 268 268 268 268 268 268
289 288 288 288 288 288 288 288 288 287 287 286 286 286 285 284 284 283 282 282 282 281 281 282 282 282 282 283 283 283 284 283 282 280 278 276 276 276 275 275 274 273 273 272 272 271 270 269 268 268 267 267 267 268 268 268 268 268 267 267 267 267 267 267 267 267 267 267 267 267 267 267 267 267 267 267 267 268 268 268 268 268 268 268 268
288 288 288 288 288 288 287 287 287 286 286 285 284 284 283 283 282 281 281 280 280 280 279 279 280 280 280 281 281 282 282 281 280 278 276 275 275 275 275 274 273 273 272 271 271 270 269 268 268 267 267 267 267 267 267 268 268 267 267 267 267 267 266 266 266 266 266 266 266 267 267 267 266 267 267 267 267 267 267 267 267 267 267 267 267
288 288 287 287 287 286 286 285 285 284 283 283 282 281 280 280 279 278 278 278 278 278 278 278 278 278 279 279 280 280 280 279 278 276 275 274 275 275 274 274 273 272 271 270 270 269 268 268 267 267 267 267 266 266 266 267 267 267 267 267 266 266 266 266 266 266 266 266 266 266 266 266 266 266 267 267 267 267 267 267 267 267 267 267 267
287 286 286 286 285 285 284 283 283 282 281 280 279 278 277 277 276 275 275 275 276 276 276 277 277 278 278 278 278 278 278 277 276 275 274 274 275 274 274 273 272 271 270 270 269 268 268 267 267 267 266 266 266 266 266 266 266 267 266 266 266 266 266 266 266 266 266 266 266 266 266 266 266 266 266 266 267 266 266 266 267 267 267 267 267
286 286 285 285 284 283 282 281 280 279 278 277 277 276 275 274 274 274 274 274 275 275 275 276 276 277 277 277 276 276 275 274 274 273 274 274 274 273 273 272 271 270 270 269 268 268 267 267 267 266 266 266 266 266 266 266 266 266 266 266 266 266 266 266 266 266 265 265 265 266 266 266 266 266 266 266 266 266 266 266 266 266 266 266 266
285 285 284 283 282 281 280 279 278 277 277 276 275 274 273 273 273 273 274 274 273 273 273 274 274 275 275 274 274 274 273 273 273 273 274 274 273 272 272 271 270 270 269 268 268 267 267 267 266 266 266 266 266 265 265 266 266 266 266 266 266 265 265 265 265 265 265 265 265 265 265 266 266 266 266 266 266 266 266 266 266 266 266 266 266
284 283 283 281 280 279 278 278 277 276 275 274 274 273 272 272 272 273 273 272 272 272 272 272 273 273 274 273 273 273 273 273 273 273 273 272 272 271 271 270 269 269 268 268 267 267 267 266 266 266 266 265 265 265 265 265 266 266 266 265 265 265 265 265 265 265 265 265 265 265 265 265 266 266 266 266 266 266 266 266 266 266 266 266 266
283 282 281 279 278 278 277 276 275 275 274 273 273 272 272 271 271 272 272 272 272 272 272 272 272 272 272 272 272 272 272 272 272 272 272 271 271 270 270 269 269 268 268 267 267 267 266 266 266 266 265 265 265 265 265 265 265 265 265 265 265 265 265 265 265 265 265 265 265 265 266 266 266 266 266 266 266 266 266 266 266 266 266 266 266
281 280 279 278 277 277 276 275 275 274 273 273 272 272 271 271 271 271 271 271 271 271 271 271 271 271 271 271 271 271 271 271 271 270 270 270 269 269 269 268 268 267 267 267 266 266 266 265 265 265 265 265 265 265 265 265 265 265 265 265 265 265 265 265 265 265 265 265 265 265 265 265 266 266 266 266 266 266 266 266 265 265 265 265 265
279 279 278 277 276 276 275 275 274 273 273 272 272 271 271 270 270 271 270 270 271 271 271 271 270 270 270 270 270 270 270 270 269 269 269 268 268 268 268 267 267 267 266 266 266 266 265 265 265 265 265 264 264 265 265 265 265 265 265 265 264 265 265 265 264 264 264 265 265 265 264 264 265 265 266 266 266 266 266 265 265 265 265 265 265
278 278 277 277 276 275 275 274 273 273 272 272 271 271 270 270 270 270 270 270 270 270 270 270 270 269 269 269 269 269 269 268 268 268 268 267 267 267 267 266 266 266 266 265 265 265 265 264 264 264 264 264 264 265 265 265 265 265 265 265 265 265 264 264 264 264 264 264 264 264 264 264 265 265 265 265 265 265 265 265 265 265 265 265 265
278 277 277 276 275 275 274 274 273 273 272 271 271 270 270 270 270 269 269 269 269 269 269 269 269 269 268 268 268 268 268 267 267 267 267 266 266 266 266 266 265 265 265 265 265 264 264 264 264 264 264 264 264 265 265 264 264 265 266 266 266 265 265 264 264 264 264 264 264 265 265 265 265 265 265 265 265 265 265 265 265 265 265 265 265
277 277 276 275 275 274 274 273 273 272 271 271 271 271 270 270 270 269 269 269 269 269 269 269 268 268 268 268 267 267 267 267 266 266 266 266 266 265 265 265 265 265 265 264 264 264 264 264 264 264 264 264 264 264 264 264 264 265 266 266 266 265 265 264 264 264 264 264 265 265 265 265 265 265 265 265 265 265 265 265 265 265 265 265 265
277 276 276 275 274 274 273 273 272 272 271 271 271 271 270 270 270 269 269 269 269 269 268 268 268 268 267 267 267 266 266 266 266 266 266 265 265 265 265 265 264 264 264 264 264 264 264 264 264 264 264 264 264 264 264 264 264 265 265 265 265 265 265 265 264 264 264 264 265 265 264 265 265 264 264 264 264 264 265 265 264 264 264 265 265
276 276 275 274 274 273 273 272 272 271 271 271 271 271 270 270 270 269 269 269 268 268 268 268 268 267 267 266 266 266 266 266 266 266 265 265 265 265 265 264 264 264 264 264 264 263 264 264 264 264 264 264 264 264 264 264 264 264 265 265 265 265 265 265 264 264 264 264 264 264 264 264 264 264 264 264 264 265 265 264 264 264 264 264 265
276 275 274 273 273 273 272 272 271 271 271 271 271 271 270 270 270 269 269 269 268 268 268 268 267 267 266 266 266 266 266 266 266 265 265 265 265 265 264 264 264 264 263 263 263 263 264 264 264 264 264 264 264 264 264 264 263 264 264 264 264 264 264 264 264 264 264 264 264 264 264 264 264 264 264 264 265 265 265 264 264 264 265 265 265
276 275 274 273 272 272 272 271 271 271 271 271 271 270 270 269 269 269 269 268 268 268 268 267 267 266 266 266 266 266 266 265 265 265 265 265 265 264 264 264 264 264 263 264 263 263 264 264 264 264 264 263 264 264 264 263 263 263 264 264 264 264 264 264 264 264 264 264 264 264 264 264 264 264 264 264 265 265 265 265 265 265 265 265 265
275 274 273 272 272 272 272 271 271 271 271 270 270 270 269 269 269 269 268 268 268 268 267 267 267 266 266 266 266 266 266 265 265 265 265 265 264 264 264 264 264 264 264 264 264 264 264 264 264 264 264 263 263 264 264 264 263 263 263 264 263 263 263 263 264 264 264 264 264 264 264 264 263 263 264 264 265 265 265 265 265 265 265 265 265
274 273 272 272 272 271 271 271 270 270 270 270 270 270 269 269 269 268 268 268 268 267 267 267 267 266 266 266 266 266 265 265 265 265 265 265 264 264 264 264 264 264 264 264 264 264 264 264 264 264 264 264 263 263 264 264 263 263 263 263 263 263 263 263 263 263 263 264 264 263 263 263 263 263 264 264 265 265 265 265 265 265 265 265 265
273 272 272 272 271 271 271 270 270 270 270 269 270 269 269 269 269 268 268 268 268 267 267 267 266 266 266 266 265 265 265 265 265 265 265 265 264 264 264 264 264 264 264 264 264 264 264 264 264 264 264 264 263 263 263 263 263 263 263 263 263 263 263 263 263 263 263 263 263 263 263 263 263 263 263 264 264 265 265 265 265 265 265 265 264
273 272 272 271 271 271 270 270 270 269 269 269 269 269 269 269 269 268 268 268 268 267 267 267 267 266 266 266 266 266 265 265 265 265 265 265 264 264 264 264 264 264 264 264 264 264 263 263 264 264 264 264 263 263 263 263 263 263 263 263 263 264 264 263 263 263 263 262 262 262 262 262 262 263 263 264 264 265 265 265 265 265 264 264 264
272 272 271 271 271 271 270 270 269 269 269 269 269 269 269 269 269 268 268 268 268 268 267 267 267 266 266 266 266 266 265 265 265 265 265 265 264 264 264 264 264 263 264 264 264 263 263 263 264 264 264 264 263 263 263 262 262 263 263 263 263 264 264 264 263 263 263 263 262 262 262 263 263 263 264 264 264 264 264 264 264 264 264 264 264
272 272 271 271 271 270 270 270 269 269 269 269 269 269 269 269 269 268 268 268 268 268 267 267 267 267 266 266 266 266 266 265 265 265 265 265 264 264 264 264 264 263 263 263 263 263 263 263 263 263 264 264 263 263 263 262 262 262 262 262 263 263 263 263 263 263 263 263 263 263 263 263 263 264 264 264 264 264 264 263 263 263 263 263 263
272 271 271 270 270 270 270 270 270 269 269 269 269 269 269 269 268 268 268 268 267 267 267 267 267 267 266 266 266 266 266 265 265 265 265 264 264 264 264 264 264 263 263 263 263 263 263 263 263 263 263 263 263 263 262 262 262 262 262 262 262 263 263 263 263 263 263 263 263 263 263 263 263 263 263 263 263 263 263 263 263 262 262 262 262
272 271 271 270 270 270 270 270 270 269 269 269 269 269 268 268 268 268 268 268 267 267 267 267 267 267 266 266 266 266 266 266 265 265 265 264 264 264 264 264 264 263 263 263 263 263 263 263 263 263 263 262 263 263 263 263 262 262 263 263 263 263 263 263 263 263 263 263 263 263 263 263 263 262 262 262 262 262 262 262 262 262 262 262 261
271 271 270 270 270 270 270 270 270 270 270 269 269 269 268 268 268 268 268 268 267 267 267 267 266 266 266 266 266 266 266 266 265 265 265 265 264 264 264 264 263 263 263 263 263 263 263 263 263 262 262 262 262 262 263 263 263 263 263 263 263 263 263 263 263 263 263 263 263 262 262 262 262 262 262 262 262 262 262 261 261 261 261 261 261
271 270 270 270 270 270 270 270 270 270 269 269 269 268 268 268 268 268 268 267 267 267 267 266 266 266 266 266 266 266 265 265 265 265 265 265 265 264 264 264 264 263 263 263 263 263 263 263 262 262 262 261 261 262 262 262 262 262 262 262 262 262 262 262 262 262 263 262 262 262 262 262 262 262 262 262 262 262 261 261 261 261 261 261 260
271 270 270 270 270 270 270 270 270 269 269 269 269 268 268 268 268 268 267 267 267 267 267 267 266 266 266 266 266 266 265 265 265 265 265 265 265 264 264 264 263 263 263 263 263 262 262 262 262 261 261 261 261 261 261 261 262 262 262 262 262 262 262 262 262 262 262 262 262 262 262 262 262 262 262 261 261 261 261 261 261 260 260 260 260
271 270 270 270 270 270 270 270 269 269 269 269 268 268 268 268 267 267 267 267 266 266 267 266 266 266 266 265 265 265 265 265 265 264 264 265 265 265 265 264 263 263 263 263 262 262 262 262 262 261 261 260 260 260 260 261 261 262 262 262 262 262 262 262 262 262 262 262 262 262 262 262 261 261 261 261 261 261 260 260 260 260 260 260 260
Wind_Speed
10 12 13 12 13 14 14 16 16 18 18 19 20 20 21 21 21 21 21 21 20 21 22 23 24 25 25 26 26 26 27 27 27 28 28 28 29 29 30 30 31 31 33 34 35 36 37 37 36 35 35 35 35 35 35 35 36 36 35 34 35 35 33 33 33 34 36 38 39 38 36 34 33 32 31 30 29 28 28 27 27 27 27 27 27
13 13 13 13 13 14 15 17 18 19 19 20 21 21 22 23 23 22 23 23 23 24 25 25 26 27 27 27 27 27 27 28 28 28 29 29 30 31 31 32 32 32 33 34 35 36 36 36 36 34 33 33 33 33 33 34 34 34 34 34 33 33 33 31 31 31 32 33 35 38 38 34 30 29 28 27 25 25 25 24 24 23 24 24 23
15 14 13 13 14 14 16 17 18 20 20 22 23 24 25 25 25 25 26 26 26 27 28 28 28 29 29 29 29 29 29 29 29 29 30 31 31 32 33 33 34 34 34 34 35 35 36 36 35 33 32 32 32 31 31 32 32 32 32 33 32 31 30 29 29 29 29 29 27 28 31 30 30 28 24 21 20 20 21 21 22 21 21 21 20
17 15 15 15 15 16 17 17 18 20 21 23 25 26 27 27 27 27 28 29 29 30 30 31 31 31 31 31 31 31 30 30 31 31 31 32 32 33 34 34 35 35 34 34 34 34 35 35 34 33 30 30 31 30 30 30 31 30 30 31 31 30 29 28 26 25 26 26 22 19 21 23 24 24 22 19 16 17 18 18 20 21 21 21 20
19 18 16 16 17 17 17 18 18 20 21 22 24 26 28 28 29 29 30 31 32 33 33 33 34 34 33 33 33 33 32 32 32 32 32 32 33 33 34 35 35 35 33 33 32 33 34 34 34 32 30 28 29 30 30 30 29 28 29 30 29 28 29 28 24 23 23 23 21 20 18 16 16 20 25 22 17 15 15 15 17 18 19 20 20
22 20 18 18 19 18 19 19 19 20 20 20 22 25 28 29 30 32 33 34 35 35 36 37 37 36 36 35 35 35 35 35 34 34 34 33 34 34 35 36 36 34 32 31 31 32 33 33 33 32 30 28 28 29 29 29 28 27 28 28 27 26 28 28 24 22 21 21 21 21 18 17 20 23 24 22 20 17 14 16 18 18 19 20 20
23 22 21 20 20 20 20 20 20 21 19 19 21 24 27 30 32 33 35 36 37 38 38 40 40 40 39 39 38 38 38 38 37 36 36 35 35 36 36 37 36 34 32 31 31 31 32 32 32 31 29 27 27 29 28 28 28 27 27 27 26 26 26 27 25 22 20 20 21 22 20 21 23 24 21 22 25 24 22 21 20 20 22 23 22
23 22 21 21 21 21 21 21 21 21 20 21 22 24 25 28 31 34 36 38 39 40 41 43 44 44 43 42 42 42 42 41 39 39 38 38 37 37 37 37 36 34 32 31 31 32 32 33 32 31 29 27 27 28 27 27 27 26 26 26 26 25 25 26 25 23 21 20 21 21 21 21 22 23 22 21 22 28 31 29 25 25 26 26 26
24 23 22 22 22 22 22 22 23 24 24 25 25 25 26 28 30 34 36 38 40 42 43 45 46 47 46 46 47 47 45 44 42 41 40 39 39 39 38 37 34 33 31 30 30 31 33 33 33 31 29 27 27 27 27 27 27 26 26 26 26 25 24 25 25 23 22 21 20 21 22 22 21 21 21 21 21 26 33 33 31 31 30 28 28
24 25 24 23 23 23 25 25 26 27 28 29 29 29 29 30 31 33 35 37 40 42 44 46 48 49 50 50 51 50 48 46 45 44 43 41 41 40 39 36 33 32 30 29 30 31 32 34 33 32 30 27 27 27 26 26 26 26 26 26 25 24 23 24 24 24 23 22 21 22 22 22 22 21 20 21 21 22 28 31 30 31 33 32 30
23 25 25 25 25 26 27 29 29 30 31 32 33 33 33 32 33 34 35 36 38 41 44 47 48 51 52 53 54 53 51 49 48 48 46 43 42 41 38 35 33 31 29 28 29 29 31 33 33 32 30 29 27 26 26 26 26 26 26 25 25 24 24 24 24 24 23 23 22 22 23 23 23 23 22 21 22 23 26 30 30 30 33 35 33
21 24 25 27 27 29 30 31 32 32 34 36 36 37 36 36 36 36 36 36 38 40 43 46 48 51 52 53 55 55 54 52 51 50 48 45 44 41 38 36 33 30 28 28 28 28 30 31 32 32 31 29 28 27 26 26 26 26 26 25 25 24 24 24 24 24 23 23 23 22 22 23 23 23 23 22 24 24 25 30 31 30 32 35 34
22 24 26 27 28 30 31 33 35 36 38 39 40 40 40 40 40 40 39 38 38 41 43 45 47 49 50 52 54 55 56 55 53 52 51 48 45 42 40 36 33 29 28 27 27 27 29 30 32 32 31 30 28 27 26 26 26 26 26 25 24 24 24 24 24 24 24 23 23 23 23 23 23 23 23 24 24 24 25 29 30 28 31 35 34
23 25 26 28 29 31 33 35 37 39 40 42 44 44 44 44 44 44 43 41 41 43 44 46 47 48 49 52 53 55 56 56 55 54 52 49 47 43 41 36 32 29 26 26 25 26 28 29 31 31 30 29 28 27 26 26 26 26 26 25 24 24 23 24 24 24 24 24 23 23 23 23 23 22 23 24 24 24 24 26 29 29 32 35 34
22 24 26 28 29 31 33 35 37 39 41 43 45 46 47 48 47 48 46 44 44 45 46 47 48 48 50 52 53 55 56 56 56 55 53 52 49 45 40 35 30 27 25 24 23 24 26 28 30 30 29 29 29 28 27 26 26 26 26 25 24 24 24 24 24 24 24 24 23 23 23 23 23 22 23 23 23 24 24 24 25 28 31 34 35
23 24 25 26 27 28 31 33 35 38 39 40 41 43 45 47 48 49 48 47 46 47 48 49 50 50 52 53 54 55 56 56 56 55 55 55 51 44 38 33 29 25 23 21 21 22 24 27 29 30 29 29 28 27 27 26 26 26 25 25 24 23 24 25 24 24 24 23 23 23 23 23 22 22 22 23 23 23 24 24 23 23 26 31 32
22 23 24 25 26 28 30 32 33 35 36 36 36 37 40 42 44 46 47 47 47 48 49 50 52 53 54 55 55 56 56 56 55 54 56 56 50 42 37 33 28 24 21 19 19 20 22 25 27 29 29 29 28 27 26 26 26 26 25 25 24 23 24 25 24 24 23 23 23 23 23 23 22 22 22 23 23 23 23 23 24 23 23 26 27
22 22 23 25 27 29 30 30 30 31 33 33 33 34 36 38 40 43 45 47 48 49 51 53 54 55 56 56 56 56 55 56 56 54 55 56 50 43 38 33 27 22 20 18 17 18 21 24 26 28 28 28 28 26 26 26 26 26 25 25 24 23 24 25 24 23 23 23 23 23 23 23 22 22 22 22 22 23 24 23 24 24 24 25 25
22 23 24 26 28 29 28 28 28 28 29 30 30 31 32 33 35 38 41 43 44 46 49 51 53 55 57 57 57 57 56 58 58 56 56 56 51 45 39 32 24 20 18 17 16 18 20 23 25 27 28 28 27 26 26 25 25 25 25 24 24 23 24 24 23 23 23 22 23 23 23 23 22 22 22 22 23 23 23 23 24 24 24 26 26
23 24 25 27 27 26 24 24 25 25 25 25 25 26 27 28 30 32 34 36 38 39 41 44 47 49 52 54 56 57 58 59 59 56 58 56 49 43 37 28 20 18 18 17 17 18 20 23 25 27 28 28 27 26 25 25 25 25 25 24 24 23 24 24 23 22 22 22 23 23 23 22 22 22 22 22 22 22 22 23 23 24 24 26 27
23 24 25 25 23 22 22 22 22 22 22 23 24 25 27 28 30 32 34 36 37 38 39 40 42 43 46 49 51 52 54 56 57 56 57 54 46 38 30 22 17 17 18 18 18 19 21 23 25 26 27 27 26 25 24 24 24 25 24 24 24 24 24 24 23 22 22 22 23 23 23 22 21 22 22 22 22 21 22 23 23 24 25 25 26
23 23 22 21 21 21 21 21 22 23 24 25 26 27 29 30 31 32 34 35 37 38 38 39 40 42 44 46 47 49 51 53 54 55 53 49 42 33 23 17 16 17 18 19 18 19 21 23 24 25 26 26 25 24 23 23 23 24 24 24 24 24 24 24 23 23 22 21 22 23 23 21 20 21 22 21 21 21 21 23 23 24 25 25 25
19 18 18 19 20 21 23 24 25 27 28 29 30 31 31 32 33 34 35 35 36 38 38 39 40 41 43 44 46 49 50 51 51 50 48 44 38 28 18 15 16 17 19 20 19 20 21 22 23 24 25 25 24 23 22 22 23 23 23 24 24 24 24 24 23 23 22 22 22 23 22 20 20 21 22 20 20 21 21 22 23 23 24 25 24
16 17 18 20 22 23 25 27 29 31 32 33 34 35 36 37 38 39 41 41 41 41 41 41 41 42 42 43 44 46 47 47 46 46 44 38 30 20 15 15 17 18 19 20 20 20 21 21 22 23 23 23 23 22 22 21 22 22 23 24 24 24 23 24 23 23 23 23 23 23 22 20 20 21 21 20 20 20 20 21 22 22 22 24 24
17 19 21 22 23 24 27 29 31 33 34 35 36 37 38 39 40 41 42 43 43 43 42 41 41 41 42 42 43 45 44 41 40 40 36 28 20 15 15 16 18 19 19 20 20 21 21 22 22 22 22 22 22 23 22 22 21 22 23 24 24 23 23 23 24 23 23 23 23 23 21 20 21 21 21 20 20 20 19 20 21 21 21 22 23
19 20 20 21 23 26 28 30 32 33 35 36 37 38 39 39 39 39 39 39 39 39 39 39 39 38 39 39 39 38 36 33 32 30 24 18 15 15 16 17 18 19 19 19 20 21 21 22 21 21 21 22 23 24 24 23 22 22 23 24 23 23 23 23 23 23 23 23 23 23 21 20 21 22 21 21 20 19 20 20 21 21 20 21 23
19 19 20 22 25 28 30 31 32 34 34 35 36 36 37 38 37 36 34 34 34 34 33 33 33 33 33 33 32 29 26 23 21 18 14 13 15 17 17 18 18 18 19 19 20 21 21 21 21 21 21 23 24 25 25 24 23 23 23 24 23 23 23 23 23 23 22 23 22 22 21 21 21 22 22 21 20 20 20 21 21 21 21 22 23
17 19 22 26 28 29 30 31 32 33 33 33 34 35 35 34 32 31 30 31 33 33 33 32 31 29 28 27 24 21 16 11 10 10 12 15 17 18 18 18 18 18 19 19 20 20 20 20 21 21 23 25 26 26 26 25 24 23 23 23 23 23 23 23 23 23 23 23 23 22 21 21 21 21 21 21 20 20 20 21 21 21 22 23 25
16 19 23 26 27 28 30 31 31 32 32 33 35 35 35 32 28 26 28 29 30 32 33 32 30 28 26 23 20 16 12 9 10 13 16 17 17 17 17 17 17 18 18 19 19 19 20 20 21 23 25 26 27 26 26 25 24 23 22 22 23 23 23 23 23 23 23 23 22 21 21 21 21 21 21 20 19 19 20 22 22 21 22 24 25
18 22 24 25 26 27 28 29 30 31 32 34 35 36 35 30 24 25 27 28 29 30 30 28 25 23 21 19 18 17 16 15 16 17 16 16 16 16 15 16 17 17 18 18 19 19 20 21 23 24 26 26 26 26 26 25 23 22 22 22 22 23 23 23 23 23 23 21 20 20 21 22 22 22 20 19 19 20 21 23 22 22 23 24 25
20 22 24 24 25 26 27 28 30 30 32 34 35 34 32 27 22 24 27 28 28 28 26 24 22 20 19 19 19 19 18 17 16 15 15 15 14 14 14 15 16 17 18 18 19 20 21 22 23 25 25 26 26 26 25 24 22 21 21 21 23 23 23 23 23 23 22 22 21 22 23 24 24 23 22 21 22 23 23 23 22 22 23 24 26
20 22 24 24 24 25 27 28 29 30 32 34 34 32 28 24 21 22 24 25 25 24 23 22 21 21 21 20 19 17 16 15 15 15 14 14 14 14 14 15 16 17 18 19 20 21 22 22 24 25 25 26 26 25 24 23 22 21 20 20 22 23 24 24 24 23 24 24 24 24 26 28 29 28 26 25 25 25 25 24 23 23 23 24 25
21 23 23 23 24 25 27 27 28 30 32 33 30 27 25 22 19 20 21 21 21 21 21 22 23 24 23 21 18 16 14 14 14 14 13 13 14 14 15 16 17 18 19 20 21 22 22 23 24 25 26 27 26 24 23 22 22 20 19 19 21 23 24 25 25 25 25 26 27 28 29 31 31 29 27 27 27 27 27 26 25 24 24 23 24
21 21 21 23 24 25 24 25 27 30 31 30 26 24 23 21 19 19 19 19 20 20 22 23 25 25 24 21 18 15 14 14 14 14 14 14 14 15 16 17 18 19 20 20 21 22 22 23 25 26 27 27 25 23 22 21 21 19 18 18 21 23 24 26 27 28 28 29 30 30 30 30 29 28 27 27 27 27 27 26 26 26 25 24 24
20 20 21 23 23 22 23 25 28 30 29 26 24 23 23 22 20 20 19 19 20 21 23 25 25 24 23 20 18 16 15 15 15 15 16 16 16 16 17 17 18 19 20 20 21 22 23 24 25 26 27 27 25 22 21 21 20 18 17 19 22 25 26 28 29 30 30 31 31 30 29 30 29 29 28 27 27 26 26 27 27 26 25 25 25
18 20 22 22 21 21 23 27 29 29 26 23 23 23 22 21 21 20 19 20 21 23 25 25 24 23 22 20 19 18 17 17 18 18 18 18 18 18 17 18 18 19 20 21 21 23 24 25 25 26 27 26 24 21 21 21 20 18 17 20 24 26 28 30 30 31 31 32 31 29 29 29 29 29 27 26 25 25 26 27 27 26 27 27 25
19 22 22 20 20 21 24 28 28 25 23 22 22 22 21 21 21 20 20 21 22 23 24 23 22 22 21 21 20 19 19 19 20 20 20 20 19 19 18 18 19 20 20 21 22 23 24 24 24 25 26 26 24 21 20 21 20 19 18 22 25 27 30 31 32 32 32 32 30 29 29 29 29 28 27 25 24 24 25 26 27 27 27 28 27
22 23 21 19 20 22 25 26 25 22 21 21 22 21 21 21 21 20 20 21 21 22 21 21 21 21 21 22 21 21 21 21 21 21 21 21 20 20 19 19 20 21 21 22 23 23 24 24 24 24 25 26 24 21 20 21 21 19 20 23 26 28 30 31 32 32 32 31 30 28 27 28 28 28 27 25 23 22 23 24 25 26 28 30 31
23 23 21 20 21 23 24 23 21 21 21 21 21 20 20 21 20 20 20 20 20 20 20 20 20 20 21 21 21 22 22 22 22 22 21 21 21 20 20 20 21 22 22 23 23 24 25 24 24 25 24 25 25 22 20 21 21 20 20 22 25 28 30 31 31 31 31 30 29 28 26 27 27 26 25 23 22 22 23 25 26 28 30 32 31
23 21 20 20 21 22 21 20 20 20 20 20 20 19 19 20 20 19 19 19 18 18 18 19 19 19 20 20 21 21 21 21 22 22 22 21 21 21 21 21 22 22 23 24 24 25 26 25 24 25 24 24 24 23 21 20 21 21 20 21 24 27 29 30 30 30 30 29 27 26 26 24 24 23 23 23 23 23 24 25 26 29 31 32 30
21 20 20 20 20 20 19 18 18 19 19 19 19 18 18 19 19 18 18 18 18 18 18 18 19 19 19 20 20 21 21 21 21 22 22 21 21 21 22 22 22 23 24 25 25 25 26 25 23 23 23 23 23 22 21 20 21 22 21 21 24 27 28 29 29 28 28 27 27 26 26 25 24 25 25 24 24 23 23 23 26 29 29 27 26
19 19 19 19 18 18 17 16 17 17 17 18 18 18 18 18 18 18 18 18 18 18 18 19 19 19 20 20 21 21 21 21 21 22 22 22 21 21 22 22 23 24 24 25 25 24 25 25 24 23 22 21 21 21 22 21 21 22 22 22 23 24 25 26 27 27 27 27 27 27 27 26 26 26 27 26 25 23 22 23 26 26 23 21 22
19 18 18 18 17 17 16 16 16 16 17 17 18 18 18 18 18 18 18 18 18 19 19 19 20 20 21 21 22 22 21 22 22 22 23 23 22 22 23 23 23 24 25 25 25 24 25 25 24 23 21 21 20 20 21 22 22 22 22 22 21 21 21 22 25 26 26 26 27 27 27 27 28 29 29 27 25 23 22 24 25 23 21 24 27
19 17 17 17 17 17 16 15 15 16 16 17 17 18 18 18 18 18 19 19 19 19 20 20 20 21 21 22 22 22 22 22 22 22 23 23 23 23 23 23 23 24 25 25 25 24 25 25 25 24 22 20 19 19 20 21 22 22 22 21 20 19 20 21 24 26 27 28 29 30 31 31 31 30 28 25 24 24 24 25 25 25 27 30 32
18 16 16 16 17 16 16 15 15 15 16 16 17 18 19 18 19 19 20 20 20 20 21 21 21 21 22 22 23 22 22 22 22 22 23 23 23 23 23 23 23 24 24 25 25 24 25 25 25 25 23 20 19 19 19 19 19 20 20 21 20 20 21 23 26 28 30 31 32 33 32 31 29 27 26 26 27 28 29 30 30 32 33 34 34
17 16 15 16 16 16 15 15 14 15 16 16 17 19 19 19 20 20 21 21 21 22 22 22 22 22 22 23 24 23 23 23 22 22 23 24 24 25 24 24 24 24 24 24 25 25 25 25 26 25 24 21 19 18 18 17 17 19 20 21 22 23 24 25 27 29 30 30 31 30 29 28 28 27 28 28 29 31 32 31 31 31 31 31 31
16 15 15 16 16 16 15 15 15 15 16 17 17 19 20 20 21 21 22 22 22 23 23 23 23 23 23 24 25 25 24 24 24 23 24 24 24 25 25 25 25 24 25 25 25 25 26 26 27 25 23 21 19 19 20 20 20 22 23 24 24 23 23 23 25 26 26 27 27 27 27 27 28 29 29 29 29 30 30 29 28 28 29 29 29
15 15 15 16 16 16 16 15 16 16 17 17 18 19 20 21 22 22 23 23 23 24 24 24 24 24 24 25 25 25 25 25 25 24 25 25 24 24 25 25 25 25 26 26 26 26 26 26 25 23 22 23 23 24 24 25 25 26 26 24 23 22 21 22 24 25 25 26 26 27 27 28 28 29 29 29 29 30 30 30 29 29 30 30 30
14 15 15 15 16 17 16 16 16 17 17 18 19 19 20 21 22 23 23 24 24 24 24 24 24 24 25 25 25 25 25 26 26 25 25 25 25 25 26 26 25 24 25 26 27 27 26 24 24 24 25 28 30 30 29 30 30 29 27 25 25 24 24 25 27 26 26 26 27 28 29 30 30 30 30 31 31 31 30 30 30 30 30 31 32
14 15 15 15 16 17 17 17 17 17 18 18 19 20 21 21 22 23 23 24 25 26 26 25 25 25 25 25 26 25 25 26 26 27 27 26 25 24 25 26 27 25 25 25 26 26 25 24 26 29 29 30 32 32 31 31 30 27 25 25 26 25 25 26 28 29 29 30 32 33 34 34 33 32 31 31 31 30 30 31 31 30 31 32 33
14 15 15 15 16 17 18 17 17 18 18 19 20 21 22 22 23 23 24 25 25 27 27 27 26 26 26 26 26 26 26 26 26 27 28 28 27 25 23 23 25 26 26 24 23 23 23 23 26 28 29 28 29 28 27 27 27 26 27 29 30 31 30 30 32 33 32 33 34 34 34 34 32 31 31 31 30 30 30 31 31 32 33 34 35
Wind_Direction
291 281 281 283 279 277 273 271 268 266 266 265 264 264 262 261 259 259 258 257 257 259 262 264 267 271 274 277 280 282 285 287 290 292 294 297 300 302 304 306 307 306 304 302 299 296 294 292 289 288 287 287 286 286 286 285 284 284 284 284 283 283 283 283 284 284 285 285 285 285 284 286 285 284 283 281 279 277 274 273 270 269 268 268 270
285 282 284 282 280 279 276 273 270 270 270 267 266 263 260 259 257 256 256 256 257 259 262 265 267 270 273 275 278 281 284 286 290 293 296 299 302 304 306 308 309 308 306 303 299 296 294 292 290 289 288 287 287 286 286 285 284 284 284 284 284 284 285 285 285 285 286 287 288 287 286 287 286 283 282 280 279 277 274 270 267 265 264 263 264
278 278 277 276 277 275 273 273 273 273 272 268 265 262 260 259 258 256 256 257 258 261 264 266 269 271 274 276 278 280 283 286 289 292 296 299 302 305 308 309 309 308 306 302 299 296 293 291 290 289 289 288 287 286 285 284 284 284 283 283 283 283 284 284 285 287 287 289 292 291 290 292 290 286 282 279 277 275 271 267 263 260 258 258 257
275 275 273 272 272 271 273 277 276 274 272 270 268 266 264 263 261 258 257 258 260 263 266 268 271 273 275 277 279 281 283 286 289 293 297 299 302 305 307 308 308 307 305 302 298 296 293 291 290 289 289 288 287 286 285 283 283 282 282 282 282 282 281 281 282 284 285 287 288 286 288 292 289 287 283 276 271 271 269 266 263 259 255 255 254
274 275 274 272 272 274 278 278 277 275 277 278 276 272 270 267 264 261 260 260 261 264 267 270 272 274 275 277 279 281 283 286 289 293 297 299 302 304 306 307 307 306 304 301 297 294 292 290 290 289 289 288 286 285 284 283 282 282 281 281 281 282 281 280 279 279 279 281 281 280 282 282 277 282 288 285 275 265 261 259 259 257 256 255 254
272 275 276 273 273 275 277 277 277 279 286 290 284 277 274 270 266 264 263 263 264 265 267 270 272 274 275 277 279 281 283 285 289 293 295 297 300 303 306 306 306 305 303 301 297 293 291 289 288 287 287 287 285 284 283 283 282 282 281 280 280 280 280 281 279 276 275 274 273 273 272 271 272 279 287 287 279 266 254 253 254 255 257 257 255
270 274 275 274 274 275 277 279 279 283 293 294 285 280 277 273 270 267 267 268 268 267 268 270 272 273 275 276 278 279 281 285 288 291 292 295 298 301 304 304 304 304 303 302 299 295 291 289 287 286 285 285 282 281 281 282 282 281 280 280 279 279 278 280 279 276 272 269 269 268 266 266 270 275 278 281 284 278 264 257 256 257 258 258 257
269 272 274 275 277 277 280 284 282 285 290 286 283 284 281 277 274 270 269 270 270 269 268 269 271 273 274 275 277 278 280 284 286 287 289 292 295 297 300 301 301 302 303 303 301 297 294 290 288 286 285 283 280 278 279 279 279 278 278 277 277 277 276 277 277 276 272 266 265 265 264 263 264 268 271 274 280 280 276 272 268 263 261 262 263
268 270 275 278 280 283 285 286 284 284 282 279 281 284 282 279 275 271 270 270 271 271 270 270 272 273 273 274 275 277 279 281 282 284 286 288 291 293 295 297 298 300 302 302 301 299 295 291 289 287 285 283 279 277 277 277 276 276 275 275 275 275 274 274 274 274 271 267 264 263 262 262 261 263 266 265 266 273 280 282 280 276 270 266 267
270 271 275 281 285 288 287 285 286 286 281 278 278 279 279 279 277 274 273 272 272 272 272 272 273 273 273 274 275 276 277 278 279 280 282 284 286 288 290 292 294 297 299 300 300 299 295 291 288 286 284 282 278 277 275 275 275 274 274 273 273 272 271 271 271 271 270 269 266 264 263 263 262 260 258 260 261 263 272 278 282 284 281 276 273
279 277 279 283 286 288 286 286 291 292 286 281 279 278 278 279 279 277 277 276 274 273 273 274 274 274 274 275 275 276 276 275 276 277 279 280 282 284 286 287 289 292 295 297 298 297 294 290 286 284 283 281 278 276 275 274 273 273 272 272 272 271 269 269 269 269 269 268 266 265 265 265 264 263 260 259 261 262 268 274 277 280 281 281 281
291 288 287 288 288 289 289 291 297 297 290 287 285 282 279 278 278 278 279 279 278 277 275 276 276 276 277 277 277 277 275 274 274 275 277 277 279 280 280 281 283 287 290 293 295 295 292 288 284 282 280 280 278 276 275 274 272 271 271 270 269 269 268 267 267 268 268 268 267 266 265 265 264 266 266 265 265 267 270 274 278 282 282 280 281
302 300 298 297 296 297 298 298 301 300 296 295 291 286 282 279 277 277 280 281 281 280 279 278 278 279 279 279 279 278 276 274 274 275 275 275 275 276 276 276 278 282 286 290 293 292 289 286 282 280 279 278 277 275 274 272 271 270 269 269 268 267 266 266 266 267 267 267 267 266 264 265 265 265 266 267 267 269 271 274 279 283 282 281 283
312 310 310 309 309 310 308 307 306 305 304 301 296 291 286 282 279 278 281 283 282 282 282 281 281 282 282 280 280 279 276 275 274 274 274 274 272 272 271 271 273 278 283 289 290 288 286 283 280 278 278 277 276 275 273 271 270 269 268 267 266 265 265 265 265 265 265 265 266 265 264 264 264 263 264 265 267 267 269 273 277 280 280 282 284
324 323 324 325 326 325 321 318 315 314 313 309 303 299 293 288 285 282 283 286 286 284 284 283 284 285 283 281 280 279 277 275 274 273 274 272 269 266 266 267 269 275 281 286 288 286 284 281 278 276 276 275 274 274 273 271 270 268 267 266 266 265 264 264 264 264 264 264 264 264 264 263 262 262 262 263 264 265 266 269 274 281 284 285 286
334 333 333 334 335 333 330 328 325 322 321 317 314 309 302 297 293 289 287 289 288 286 286 286 287 286 284 282 282 280 277 275 274 275 275 271 265 262 263 263 266 271 278 283 286 286 284 280 276 275 274 274 273 272 272 271 270 268 267 266 265 264 264 264 264 264 264 264 263 263 263 262 261 261 261 261 261 262 264 266 268 274 283 287 290
336 335 336 337 337 337 335 333 330 329 329 327 326 321 313 306 301 297 294 292 290 290 290 290 288 287 285 284 283 281 279 278 278 278 276 270 263 260 261 259 261 267 273 280 284 284 283 279 275 273 273 274 273 272 271 270 269 268 267 266 265 264 263 263 264 264 264 264 264 263 263 263 262 260 260 260 260 261 261 264 266 267 272 279 286
335 336 338 339 339 340 338 336 334 335 336 334 333 330 323 316 310 306 302 299 298 297 295 293 291 289 287 286 284 283 283 282 279 277 275 270 262 258 257 256 258 265 271 278 283 285 283 279 276 273 272 272 272 271 270 269 269 268 267 267 266 265 264 263 264 264 265 264 264 263 262 263 263 262 261 260 260 261 261 262 264 265 266 269 273
336 340 341 341 343 343 341 339 336 335 333 330 329 327 326 324 320 315 311 309 307 304 301 298 296 293 291 290 288 286 284 282 277 273 272 268 260 255 253 253 257 265 272 278 282 285 284 280 276 273 271 270 270 269 269 268 268 268 268 268 268 267 266 266 266 266 266 265 265 264 263 263 264 263 262 261 261 261 263 264 265 266 266 267 268
339 343 343 345 347 344 341 336 330 328 326 325 325 324 324 326 325 323 320 318 316 313 310 306 303 300 298 295 291 288 285 281 275 271 270 267 260 253 250 250 259 270 275 280 283 284 282 278 275 272 270 269 268 268 267 267 267 268 269 269 269 268 268 268 268 267 266 266 266 265 264 264 264 264 262 263 263 263 265 266 266 267 266 266 268
343 345 345 345 343 337 332 329 326 325 325 325 326 324 324 325 326 326 325 324 322 320 319 316 312 308 303 299 296 293 289 284 279 275 271 267 258 250 247 251 264 274 279 282 285 285 281 276 273 271 270 270 268 267 266 265 266 267 268 269 269 268 267 268 269 267 266 266 266 266 266 265 265 266 265 265 265 265 265 265 265 266 266 265 266
347 346 345 342 339 336 333 332 330 329 327 327 327 326 327 327 328 328 327 327 327 325 322 319 316 311 307 304 302 299 294 289 284 277 270 263 253 247 248 259 272 280 283 285 285 284 280 275 273 271 270 271 270 267 265 264 265 267 268 268 268 268 268 269 269 269 268 267 267 267 267 268 268 268 268 267 267 267 265 265 264 264 266 265 266
346 344 342 341 340 338 335 333 332 332 330 329 328 326 326 325 324 324 323 323 322 320 319 317 314 311 308 305 303 301 296 288 280 271 264 256 247 245 254 271 283 287 285 286 287 285 280 275 272 271 271 272 272 271 268 265 265 267 269 269 269 270 270 271 271 271 271 269 269 270 270 271 270 268 269 268 268 268 266 266 266 265 267 267 267
342 342 342 342 340 337 336 335 334 332 330 328 327 325 324 323 322 322 320 319 318 315 314 313 311 309 308 307 305 301 293 282 273 266 260 250 242 249 270 283 288 288 285 286 288 286 280 274 272 271 272 273 275 277 274 269 267 268 270 270 270 270 271 272 272 271 272 271 271 272 273 273 272 270 270 271 270 269 269 268 269 268 269 271 270
345 346 345 344 342 340 338 335 333 331 329 329 328 328 327 326 326 326 325 323 321 319 317 315 312 310 309 308 308 304 292 279 269 262 254 244 245 267 286 289 289 286 285 287 288 285 280 275 273 273 275 277 281 283 281 275 271 269 269 270 270 271 271 271 271 271 271 272 273 273 274 274 273 272 273 273 272 272 272 272 273 273 272 273 273
350 350 349 346 342 339 336 334 333 332 332 331 331 331 332 331 332 334 333 330 327 323 319 315 312 311 310 311 311 305 293 279 268 259 249 246 265 288 294 291 289 286 285 287 286 283 279 276 275 276 278 282 285 286 284 279 274 271 271 271 272 272 271 270 270 271 271 272 273 273 274 273 272 273 274 275 276 276 277 276 276 276 276 275 275
350 348 345 342 339 337 336 336 335 334 333 334 335 336 336 337 339 342 344 345 343 340 336 330 324 322 321 321 318 310 301 289 273 258 252 269 291 299 296 292 290 287 286 285 284 282 279 277 277 278 281 285 287 287 284 280 276 273 273 273 274 273 273 272 272 272 273 273 272 272 273 272 271 272 274 276 277 278 278 277 276 275 274 273 273
347 344 341 338 338 337 337 337 335 335 335 337 339 340 340 341 344 348 353 357 357 355 355 354 353 352 349 343 335 327 324 311 284 275 287 299 302 300 296 293 289 286 284 283 281 280 279 278 279 282 284 286 287 286 283 279 276 275 274 275 275 274 273 273 273 274 275 274 273 273 271 270 269 270 273 275 276 277 277 276 274 274 274 273 273
346 342 340 339 339 338 337 336 336 337 338 339 340 341 340 342 346 347 350 354 354 351 352 356 1 7 8 3 357 353 347 331 313 309 307 304 301 297 294 291 286 283 282 281 281 280 279 280 282 284 285 286 286 284 281 279 277 276 275 275 275 274 274 275 275 275 275 273 272 270 268 268 268 267 270 273 274 277 278 278 277 275 274 273 272
342 339 339 340 339 336 335 336 337 338 338 339 340 339 338 339 341 341 341 343 345 344 346 350 354 359 359 354 349 343 334 323 316 311 306 302 300 297 293 288 284 283 283 283 283 281 281 282 283 284 285 285 284 283 281 280 279 279 279 278 276 274 274 274 275 276 275 272 271 271 270 269 269 271 274 277 279 281 281 282 282 280 278 276 276
338 338 339 339 337 335 334 336 337 337 337 338 337 335 335 337 339 338 337 339 340 339 342 346 348 348 345 341 336 329 322 317 313 309 307 305 303 298 293 289 286 286 287 286 285 284 284 284 284 284 284 283 283 282 281 280 278 277 278 279 279 280 280 282 285 287 287 286 284 282 280 279 280 283 287 287 285 284 283 283 284 283 280 276 276
338 337 337 336 335 334 333 334 334 334 335 335 334 333 335 338 341 340 338 338 337 337 339 341 343 344 343 340 335 326 319 315 312 311 310 307 305 302 297 294 291 290 289 287 287 287 286 286 286 285 284 283 282 281 280 278 276 274 273 273 274 276 279 281 283 285 287 288 287 284 283 284 287 291 292 291 288 287 287 286 284 280 275 269 266
336 334 333 333 331 330 330 330 331 332 333 333 333 334 337 339 340 338 337 337 336 335 336 337 339 341 341 340 336 328 323 321 317 315 313 310 308 304 299 297 294 291 290 288 289 289 288 287 287 286 285 283 282 281 279 277 275 273 272 273 273 273 273 274 274 275 275 276 275 275 276 280 284 287 289 288 287 288 287 286 283 280 276 271 266
333 331 329 327 325 325 326 326 328 330 331 331 333 336 337 337 336 334 335 336 334 333 333 334 335 336 337 338 335 330 326 324 322 320 317 313 309 303 298 295 292 290 289 289 289 288 287 287 286 285 284 283 282 282 280 277 275 273 273 273 272 272 271 271 272 273 272 270 270 272 275 278 281 282 283 283 283 283 284 283 282 279 276 272 268
328 325 324 322 321 321 323 325 328 329 330 331 334 337 337 337 336 335 336 334 331 330 330 330 331 332 334 336 335 332 327 324 321 319 316 313 309 303 298 293 289 288 288 287 287 286 285 285 284 284 284 283 284 284 281 277 273 271 272 271 268 267 268 270 271 272 272 272 273 276 278 280 281 281 280 280 279 280 281 281 280 279 277 273 269
320 318 319 319 318 318 321 324 326 327 329 332 335 336 336 335 334 334 333 330 326 325 326 327 328 330 332 333 333 330 327 324 321 318 315 313 309 305 300 295 290 288 286 286 285 285 284 284 283 283 284 284 285 284 280 277 273 269 269 266 263 262 264 267 269 271 273 274 276 278 280 281 282 282 281 279 278 280 281 281 282 281 280 279 278
314 315 316 315 313 314 319 322 324 326 329 332 334 334 334 334 333 332 329 326 325 325 326 327 328 329 330 331 330 328 325 322 319 317 315 313 310 306 302 297 293 291 289 288 287 286 285 285 284 284 285 285 285 283 279 277 273 270 266 264 263 263 263 264 266 269 272 275 277 279 281 281 281 280 280 279 279 279 278 277 277 277 280 282 283
314 315 315 311 310 315 319 322 324 327 329 330 330 331 332 333 333 333 331 330 329 329 329 329 329 329 329 328 327 325 323 320 317 315 313 311 308 305 301 297 294 292 290 289 288 286 286 285 285 286 286 286 286 284 280 276 273 269 265 264 265 266 266 266 268 269 272 274 276 277 278 278 279 279 280 281 279 277 276 276 276 277 278 277 277
313 314 312 310 313 318 320 321 324 326 327 327 328 329 331 332 334 334 334 333 332 331 331 331 329 328 326 325 323 321 319 317 315 313 310 308 306 303 299 296 293 291 289 288 287 286 285 285 285 286 285 286 286 284 279 275 273 270 267 266 267 269 269 270 270 272 273 274 275 276 275 277 279 280 280 280 278 274 272 272 273 273 273 274 278
311 311 310 311 315 318 320 323 324 325 325 325 325 328 331 331 333 334 333 334 333 332 332 329 327 325 322 320 319 316 314 312 310 308 306 304 302 299 296 293 291 289 287 286 285 284 284 284 284 285 285 285 285 284 280 276 274 272 269 267 268 269 270 272 274 276 278 278 279 280 279 279 278 275 272 271 271 269 268 269 271 272 276 281 285
309 308 310 314 317 319 321 322 322 321 322 322 323 327 329 330 331 332 332 333 332 330 329 327 324 322 319 316 315 312 309 308 305 303 301 299 298 296 294 291 289 288 286 285 285 284 284 285 285 285 285 285 285 284 282 278 276 275 272 268 267 268 271 275 278 279 280 281 282 281 281 280 278 275 273 272 273 272 271 273 275 277 282 284 279
304 306 310 315 318 318 318 318 318 318 319 320 321 324 327 329 330 330 330 330 329 327 326 324 322 320 317 315 313 310 308 306 303 301 299 297 297 295 292 291 290 289 288 287 287 287 287 288 288 287 286 286 285 285 285 281 278 275 273 269 268 269 272 277 280 280 280 282 283 284 283 281 279 279 281 282 284 283 280 277 277 279 280 273 263
303 306 311 316 317 316 316 316 317 317 317 318 320 322 326 327 327 327 327 326 325 324 322 321 319 317 315 314 312 310 309 307 305 302 300 299 299 297 294 293 292 291 291 290 290 290 289 289 289 288 287 287 287 286 285 282 279 275 273 272 270 269 271 273 274 277 278 280 280 279 277 276 277 281 286 288 289 286 280 275 274 273 268 262 261
304 308 313 316 314 313 314 315 315 315 316 318 319 320 324 326 325 325 324 324 324 323 321 320 318 316 314 313 312 311 311 309 308 306 304 303 302 300 298 296 294 292 292 291 292 291 289 289 289 289 289 290 290 286 282 279 278 276 274 272 268 266 267 266 265 267 269 270 271 271 272 275 279 283 286 284 279 273 270 267 267 266 266 267 271
306 310 313 313 311 311 313 314 314 314 315 318 319 319 322 324 324 323 322 323 323 321 321 321 318 316 315 312 312 312 311 310 309 307 306 305 304 302 301 299 296 294 293 292 292 291 289 289 290 291 293 295 290 284 279 275 273 272 271 270 267 265 265 265 263 264 265 266 268 270 273 275 276 275 273 270 269 269 268 269 271 272 274 276 277
305 309 311 310 308 309 309 311 313 313 315 318 318 318 320 322 323 322 322 322 322 321 321 321 318 316 315 313 312 313 312 311 310 308 306 306 305 304 302 301 299 297 295 293 292 291 290 289 290 293 296 296 288 281 275 271 269 269 268 268 270 271 271 269 267 267 267 267 268 269 268 267 266 265 266 269 271 272 271 271 273 275 277 278 280
305 308 309 306 305 306 307 310 312 312 314 317 317 317 320 320 321 321 321 321 321 320 320 320 319 317 316 315 314 314 314 313 311 310 308 307 305 304 302 302 301 299 296 294 292 292 291 292 294 297 296 292 286 281 278 276 276 275 275 276 278 278 275 271 269 268 268 269 269 268 266 265 266 268 270 271 272 274 275 276 278 279 281 282 285
305 307 307 304 303 306 308 311 312 312 313 315 316 317 318 318 318 319 319 319 319 319 319 319 319 318 316 316 315 314 314 314 313 312 311 309 308 305 303 302 302 299 296 295 293 293 293 294 295 297 298 297 293 288 285 286 286 285 286 288 289 286 283 278 275 273 273 272 270 269 268 268 269 271 272 271 271 274 277 279 280 282 283 284 286
305 305 303 301 303 305 308 309 311 312 313 314 315 316 316 316 317 317 318 318 318 318 318 319 318 318 316 315 315 315 315 314 314 314 312 311 310 308 305 304 303 299 297 296 295 295 297 299 301 302 303 302 297 293 291 292 294 295 297 299 299 297 293 287 283 283 282 279 276 275 274 274 274 274 274 273 273 273 274 275 278 279 280 282 284
303 302 301 301 302 304 306 308 310 312 313 313 314 315 315 315 316 316 317 318 318 318 319 319 319 319 318 317 316 316 316 315 315 315 313 311 310 309 307 306 306 303 300 299 299 299 300 302 301 299 297 295 293 293 294 295 295 295 293 291 289 286 283 282 283 284 283 280 278 277 277 277 277 276 274 273 272 271 272 274 276 277 278 280 283
301 299 299 300 300 302 304 307 309 310 312 313 314 314 314 314 315 316 317 318 318 318 318 320 321 320 319 318 318 318 317 317 316 315 314 313 311 309 307 305 304 303 301 299 296 293 290 287 285 285 286 286 287 288 289 289 287 283 277 276 276 277 278 281 281 278 275 273 272 272 273 273 273 271 270 269 269 269 270 272 274 275 278 282 285